K5PCJ Weather Reports


time (UTC)temp
C
wind
direction
speed
KPH
gust
KPH
rain 1hr
cm
rain 24hr
cm
rain mn
cm
humidity
%
barometer
mb
20260502190545 23 68 1.6 6.4 0.00 2.16 0.00 52 1019.9
20260502190047 23 53 1.6 8.0 0.00 2.16 0.00 50 1019.9
20260502185545 23 110 1.6 8.0 0.00 3.10 0.00 53 1019.9
20260502185048 23 176 3.2 8.0 0.00 3.10 0.00 51 1019.9
20260502184558 23 92 3.2 6.4 0.00 3.10 0.00 51 1020.0
20260502184052 23 102 1.6 8.0 0.00 3.10 0.00 52 1020.1
20260502183544 23 3 3.2 8.0 0.00 3.10 0.00 53 1020.1
20260502183057 22 183 3.2 8.0 0.00 3.10 0.00 52 1020.1
20260502182543 22 200 3.2 9.7 0.00 3.10 0.00 53 1020.3
20260502182044 22 70 1.6 9.7 0.00 3.10 0.00 51 1020.2
20260502181551 22 151 3.2 9.7 0.00 3.10 0.00 53 1020.2
20260502181045 22 173 3.2 8.0 0.00 3.10 0.00 53 1020.4
20260502180545 22 11 3.2 9.7 0.00 3.10 0.00 55 1020.5
20260502164044 21 235 0.0 9.7 0.00 3.71 0.00 60 1020.7
20260502163547 21 308 1.6 9.7 0.00 3.71 0.00 61 1020.8
20260502163056 20 154 3.2 11.3 0.00 3.71 0.00 62 1020.8
20260502162542 20 230 4.8 11.3 0.00 3.71 0.00 63 1020.8
20260502162041 20 60 3.2 11.3 0.00 3.71 0.00 64 1020.7
20260502161552 20 300 1.6 4.8 0.00 3.71 0.00 65 1020.7
20260502161041 20 97 1.6 11.3 0.00 3.71 0.00 66 1020.6
20260502160541 20 106 1.6 11.3 0.00 3.71 0.00 67 1020.7
20260502152044 17 0 3.2 11.3 0.00 3.73 0.00 77 1020.6
20260502151600 17 119 3.2 8.0 0.00 3.73 0.00 81 1020.6
20260502151044 17 166 1.6 8.0 0.00 3.73 0.00 81 1020.6
20260502150548 17 176 1.6 8.0 0.00 3.73 0.00 83 1020.7
20260502130545 11 0 0.0 1.6 0.00 5.44 0.00 96 1019.4
20260502123545 10 0 0.0 1.6 0.00 5.66 0.00 96 1018.8
20260502123053 10 0 0.0 1.6 0.00 5.66 0.00 96 1018.8
20260502122546 10 0 0.0 1.6 0.00 5.66 0.00 96 1018.7
20260502122043 10 0 0.0 1.6 0.00 5.66 0.00 96 1018.7
20260502121553 10 0 0.0 0.0 0.00 5.66 0.00 96 1018.8
20260502121046 10 0 0.0 0.0 0.00 5.66 0.00 96 1018.8
20260502120544 10 0 0.0 1.6 0.00 5.66 0.00 96 1018.7
20260502115548 10 73 0.0 0.0 0.00 5.74 0.00 96 1018.5
20260502115044 10 0 0.0 0.0 0.00 5.74 0.00 96 1018.5
20260502114604 10 0 0.0 1.6 0.00 5.74 0.00 96 1018.4
20260502114044 10 0 0.0 1.6 0.00 5.74 0.00 96 1018.5
20260502113547 10 0 0.0 0.0 0.00 5.74 0.00 96 1018.4
20260502113050 10 0 0.0 1.6 0.00 5.74 0.00 96 1018.3
20260502112544 10 0 0.0 1.6 0.00 5.74 0.00 96 1018.3
20260502112046 10 0 0.0 3.2 0.00 5.74 0.00 96 1018.1
20260502111554 10 0 0.0 3.2 0.00 5.74 0.00 96 1018.1
20260502111044 10 0 0.0 1.6 0.00 5.74 0.00 96 1018.1
20260502110546 10 0 0.0 1.6 0.00 5.74 0.00 96 1018.1
20260502110053 10 0 0.0 1.6 0.00 5.74 0.00 96 1017.9
20260502105548 10 0 0.0 1.6 0.00 6.38 0.00 96 1017.9
20260502105044 10 0 0.0 1.6 0.00 6.38 0.00 96 1017.8
20260502104553 10 0 0.0 1.6 0.00 6.38 0.00 96 1018.0
20260502104045 10 89 0.0 1.6 0.00 6.38 0.00 96 1017.9
20260502103545 10 0 0.0 3.2 0.00 6.38 0.00 96 1017.9
20260502103046 10 0 0.0 3.2 0.00 6.38 0.00 96 1017.8
20260502102545 10 0 0.0 3.2 0.00 6.38 0.00 96 1017.7
20260502102044 10 91 0.0 1.6 0.00 6.38 0.00 96 1017.5
20260502101615 10 0 0.0 1.6 0.00 6.38 0.00 96 1017.4
20260502101044 10 0 0.0 1.6 0.00 6.38 0.00 96 1017.4
20260502100544 10 104 0.0 3.2 0.00 6.38 0.00 96 1017.2
20260502091044 11 0 0.0 1.6 0.00 7.95 0.00 95 1016.2
20260502090545 10 104 0.0 1.6 0.00 7.95 0.00 95 1016.1
20260502090106 10 104 0.0 1.6 0.00 7.95 0.00 95 1016.2
20260502080108 11 0 0.0 0.0 0.00 8.51 0.00 95 1016.2
20260502071044 11 0 0.0 4.8 0.00 8.66 0.00 95 1016.3
20260502070544 11 117 0.0 6.4 0.00 8.66 0.00 95 1016.3
20260502070104 11 111 1.6 6.4 0.00 8.66 0.00 95 1016.2
20260502065543 11 0 0.0 4.8 0.00 8.79 0.00 95 1016.1
20260502065043 11 105 0.0 3.2 0.00 8.79 0.00 95 1016.0
20260502064554 11 0 0.0 3.2 0.00 8.79 0.00 95 1016.0
20260502064044 11 0 0.0 8.0 0.00 8.79 0.00 95 1016.0
20260502063550 11 0 1.6 8.0 0.00 8.79 0.00 95 1016.0
20260502063058 11 173 0.0 6.4 0.00 8.79 0.00 95 1016.0
20260502062547 11 251 0.0 6.4 0.00 8.79 0.00 95 1015.9
20260502062138 11 108 1.6 6.4 0.00 8.79 0.00 95 1016.0
20260502062053 11 108 1.6 6.4 0.00 8.79 0.00 95 1016.0
20260502061549 11 0 1.6 6.4 0.00 8.79 0.00 95 1015.9
20260502061044 11 34 1.6 4.8 0.00 8.79 0.00 95 1016.0
20260502060544 11 113 1.6 4.8 0.00 8.79 0.00 95 1015.9
20260502060052 11 139 1.6 6.4 0.00 8.79 0.00 95 1016.0
20260502055543 11 131 1.6 6.4 0.00 9.22 0.00 95 1016.0
20260502055044 12 251 1.6 8.0 0.00 9.22 0.00 95 1016.0
20260502054556 12 183 1.6 8.0 0.00 9.22 0.00 95 1016.0
20260502054044 12 0 0.0 3.2 0.00 9.22 0.00 95 1016.1
20260502053544 12 110 0.0 3.2 0.00 9.22 0.00 95 1016.2
20260502053048 12 157 0.0 3.2 0.00 9.22 0.00 95 1016.3
20260502052545 12 104 0.0 4.8 0.00 9.22 0.00 95 1016.2
20260502052046 12 273 0.0 4.8 0.00 9.22 0.00 95 1016.3
20260502051603 12 285 1.6 4.8 0.03 9.22 0.00 95 1016.2
20260502051043 12 0 0.0 6.4 0.03 9.22 0.00 95 1016.3
20260502050541 12 82 0.0 8.0 0.03 9.22 0.00 95 1016.2
20260502050050 12 134 1.6 8.0 0.03 9.22 0.00 95 1016.2
20260502045547 12 103 1.6 6.4 0.03 9.22 9.22 95 1016.2
20260502045047 12 150 3.2 9.7 0.03 9.22 9.22 95 1016.2
20260502044552 12 165 3.2 9.7 0.03 9.22 9.22 95 1016.0
20260502044047 12 173 1.6 8.0 0.03 9.22 9.22 95 1016.2
20260502043544 12 173 1.6 6.4 0.03 9.22 9.22 95 1016.1
20260502043048 12 93 3.2 6.4 0.03 9.22 9.22 95 1016.3
20260502042553 12 263 3.2 11.3 0.03 9.22 9.22 95 1016.2
20260502042043 12 143 3.2 11.3 0.03 9.22 9.22 95 1016.2
20260502041546 12 140 1.6 11.3 0.00 9.19 9.19 95 1016.2
20260502041044 12 158 1.6 4.8 0.00 9.19 9.19 95 1016.0
20260502040544 12 113 1.6 4.8 0.00 9.19 9.19 96 1015.9
20260502040057 12 118 1.6 6.4 0.00 9.19 9.19 95 1015.9
20260502035548 12 33 1.6 6.4 0.00 9.19 9.19 95 1015.8
20260502035048 12 68 1.6 6.4 0.00 9.19 9.19 95 1015.8
20260502034548 12 165 1.6 6.4 0.03 9.19 9.19 95 1015.7
20260502034048 12 0 1.6 4.8 0.03 9.19 9.19 95 1015.7
20260502033544 12 0 1.6 6.4 0.05 9.19 9.19 95 1015.6
20260502033046 12 97 3.2 6.4 0.05 9.19 9.19 95 1015.6
20260502032544 12 119 0.0 4.8 0.08 9.19 9.19 95 1015.6
20260502032048 12 85 1.6 6.4 0.08 9.19 9.19 95 1015.4
20260502031551 12 257 1.6 6.4 0.08 9.19 9.19 95 1014.5
20260502031044 12 0 3.2 6.4 0.08 9.19 9.19 95 1014.7
20260502030544 12 129 1.6 4.8 0.10 9.19 9.19 95 1014.7
20260502030100 12 137 0.0 4.8 0.10 9.19 9.19 95 1014.8
20260502025544 12 0 1.6 6.4 0.10 9.19 9.19 95 1015.0
20260502025048 12 88 1.6 12.9 0.13 9.19 9.19 95 1015.0
20260502024552 12 120 1.6 12.9 0.15 9.17 9.17 95 1014.7
20260502024044 12 59 1.6 4.8 0.20 9.17 9.17 95 1014.4
20260502023549 12 275 0.0 8.0 0.20 9.14 9.14 95 1014.7
20260502023120 12 117 0.0 8.0 0.20 9.12 9.12 95 1015.0
20260502022543 12 163 1.6 8.0 0.20 9.12 9.12 95 1015.1
20260502022048 12 0 3.2 6.4 0.23 9.12 9.12 95 1014.9
20260502021549 12 129 1.6 4.8 0.23 9.12 9.12 95 1014.4
20260502021047 13 147 0.0 8.0 0.23 9.12 9.12 95 1014.3
20260502020543 13 131 3.2 8.0 0.23 9.09 9.09 95 1014.3
20260502020103 13 110 1.6 4.8 0.23 9.09 9.09 95 1014.1
20260502015544 13 136 1.6 4.8 0.23 9.09 9.09 95 1013.9
20260502015050 13 153 1.6 4.8 0.20 9.07 9.07 95 1014.0
20260502014554 13 92 0.0 1.6 0.18 9.02 9.02 95 1013.6
20260502014043 13 112 0.0 1.6 0.18 8.97 8.97 95 1013.5
20260502013543 13 112 0.0 9.7 0.18 8.94 8.94 95 1014.0
20260502013103 13 316 1.6 9.7 0.18 8.92 8.92 95 1014.0
20260502012552 13 202 0.0 6.4 0.23 8.92 8.92 95 1014.1
20260502012048 13 105 1.6 6.4 0.23 8.89 8.89 95 1013.5
20260502011549 13 0 0.0 6.4 0.25 8.89 8.89 95 1013.1
20260502011043 13 141 1.6 12.9 0.28 8.89 8.89 95 1012.7
20260502010543 13 139 3.2 12.9 0.28 8.86 8.86 95 1012.4
20260502010050 13 158 3.2 12.9 0.28 8.86 8.86 95 1012.4
20260502005659 13 259 1.6 6.4 0.30 8.86 8.86 95 1012.6
20260502005549 13 259 1.6 6.4 0.30 8.86 8.86 95 1012.6
20260502005048 13 113 1.6 4.8 0.30 8.84 8.84 95 1012.3
20260502004624 13 136 1.6 4.8 0.33 8.81 8.81 95 1012.5
20260502004044 13 139 1.6 4.8 0.36 8.79 8.79 95 1012.7
20260502003545 13 170 1.6 4.8 0.38 8.76 8.76 95 1012.5
20260502003101 13 0 0.0 3.2 0.41 8.71 8.71 95 1012.3
20260502002543 13 113 0.0 6.4 0.53 8.69 8.69 95 1012.6
20260502002044 13 60 1.6 6.4 0.58 8.66 8.66 95 1012.8
20260502001610 13 123 0.0 8.0 0.56 8.64 8.64 95 1012.5
20260502001043 13 108 1.6 8.0 0.53 8.61 8.61 95 1012.2
20260502000543 13 98 3.2 6.4 0.51 8.59 8.59 95 1011.5
20260502000104 13 181 1.6 4.8 0.51 8.59 8.59 95 1011.0
20260501235545 13 160 1.6 4.8 0.48 8.56 8.56 95 1011.8
20260501235043 14 134 1.6 4.8 0.46 8.53 8.53 95 1011.8
20260501234605 14 7 1.6 4.8 0.41 8.48 8.48 95 1012.0
20260501234052 14 52 1.6 4.8 0.36 8.43 8.43 95 1012.3
20260501233545 14 155 1.6 4.8 0.30 8.38 8.38 95 1012.5
20260501233055 14 0 0.0 3.2 0.20 8.28 8.28 95 1012.9
20260501232549 14 93 0.0 9.7 0.05 8.13 8.13 95 1012.9
20260501232053 14 94 1.6 9.7 0.00 8.08 8.08 95 1012.7
20260501231556 14 65 3.2 9.7 0.00 8.08 8.08 95 1011.9
20260501231152 14 323 1.6 9.7 0.00 8.08 8.08 95 1010.4
20260501230551 14 217 3.2 9.7 0.03 8.08 8.08 95 1010.9
20260501230050 14 193 1.6 8.0 0.08 8.08 8.08 95 1011.1
20260501225544 14 240 3.2 8.0 0.13 8.08 8.08 95 1011.2
20260501225051 14 11 1.6 6.4 0.20 8.08 8.08 95 1011.6
20260501224551 14 192 1.6 6.4 0.25 8.08 8.08 95 1011.6
20260501224051 14 186 3.2 6.4 0.28 8.08 8.08 95 1011.4
20260501223546 15 85 1.6 6.4 0.28 8.08 8.08 95 1011.3
20260501223053 15 104 1.6 6.4 0.28 8.08 8.08 95 1011.4
20260501222545 15 88 1.6 6.4 0.30 8.08 8.08 95 1011.7
20260501222048 15 149 1.6 6.4 0.33 8.08 8.08 96 1011.8
20260501221549 15 154 1.6 9.7 0.36 8.08 8.08 95 1012.0
20260501221044 15 167 1.6 9.7 0.41 8.08 8.08 96 1011.9
20260501220544 15 185 3.2 9.7 0.41 8.05 8.05 96 1012.1
20260501220134 15 0 0.0 6.4 0.41 8.00 8.00 96 1012.2
20260501215544 15 257 0.0 3.2 0.41 7.95 7.95 96 1012.0
20260501215045 15 101 0.0 3.2 0.38 7.87 7.87 96 1012.0
20260501214553 15 0 0.0 3.2 0.36 7.82 7.82 95 1012.0
20260501214044 15 105 0.0 6.4 0.33 7.80 7.80 95 1012.0
20260501213544 15 113 1.6 8.0 0.36 7.80 7.80 95 1011.4
20260501213100 15 78 1.6 8.0 0.38 7.80 7.80 95 1011.3
20260501212544 15 134 0.0 6.4 0.38 7.77 7.77 95 1010.3
20260501212045 15 178 1.6 6.4 0.38 7.75 7.75 95 1010.9
20260501211556 15 112 3.2 6.4 0.36 7.72 7.72 95 1010.2
20260501211044 15 119 1.6 6.4 0.33 7.67 7.67 95 1010.1
20260501210544 15 267 0.0 6.4 0.33 7.65 7.65 95 1010.8
20260501210103 15 105 1.6 3.2 0.33 7.59 7.59 95 1011.1
20260501205545 15 229 0.0 4.8 0.28 7.54 7.54 96 1011.4
20260501205045 15 0 0.0 6.4 0.25 7.49 7.49 95 1011.2
20260501204558 15 140 1.6 6.4 0.23 7.47 7.47 95 1011.0
20260501204044 15 190 1.6 6.4 0.23 7.47 7.47 95 1010.7
20260501203544 15 284 1.6 3.2 0.23 7.44 7.44 95 1010.8
20260501203056 15 155 0.0 3.2 0.20 7.42 7.42 96 1011.0
20260501202544 15 70 0.0 4.8 0.18 7.39 7.39 96 1011.1
20260501202044 15 0 0.0 4.8 0.18 7.37 7.37 96 1010.9
20260501201546 15 0 0.0 4.8 0.20 7.37 7.37 96 1010.7
20260501201045 15 0 1.6 4.8 0.18 7.34 7.34 96 1010.1
20260501200544 15 149 0.0 3.2 0.20 7.32 7.32 96 1010.1
20260501200053 15 117 0.0 4.8 0.20 7.26 7.26 96 1010.1
20260501195545 15 0 0.0 4.8 0.25 7.26 7.26 96 1010.4
20260501195044 15 146 3.2 4.8 0.28 7.24 7.24 96 1010.1
20260501194550 16 83 0.0 4.8 0.33 7.24 7.24 96 1010.1
20260501194043 15 86 1.6 6.4 0.36 7.24 7.24 96 1010.3
20260501193544 15 0 1.6 6.4 0.41 7.21 7.21 95 1009.5
20260501193050 16 234 0.0 3.2 0.48 7.21 7.21 96 1009.7
20260501192544 15 0 0.0 6.4 0.53 7.21 7.21 96 1009.6
20260501192044 15 0 1.6 6.4 0.64 7.19 7.19 95 1009.7
20260501191553 15 115 1.6 6.4 0.76 7.16 7.16 96 1009.6
20260501191045 15 178 3.2 6.4 0.86 7.14 7.14 95 1009.8